Starlink 1814

operational
NORAD ID: 46712 Int'l Des: 2020-073 Owner: SPXS Country: US Constellation: starlink
LEOCIRCULARSTARLINK_TYPE

About Starlink 1814

Description loading...

Live Position

Loading 3D Globe...

Upcoming Passes

Altitude History

Altitude vs Time

uPlot chart will show altitude changes over time

Two-Line Element Set

1 46712U 20073AU 25259.84703316 .00000999 00000-0 85937-4 0 9990
2 46712 53.0525 302.1539 0001197 92.6368 267.4759 15.06401059270928
Epoch: Sep 16, 2025 • Age: 20 hours

Current Status

Altitude 547.9 km
Velocity 7.59 km/s
Sub-Earth Point 0.89°N, 122.49°W
Launch Date Oct 18, 2020
Age 4.9 years
Type internet

Technical Details

Classification Payload
Mass 260.00 kg
Dry Mass 248.00 kg
Total Mass 260.00 kg
Length 0.20 m
Diameter 2.80 m
Span 9.00 m
Shape Box + pan
Manufacturer SPXS
Bus Type Starlink
Phase Status In Orbit
Owner/State SPXS/US

Large Constellations

Loading constellations...